{"data":{"norad_id":60537,"epoch":"2026-09-22T16:55:32.010240Z","epoch_age_seconds":98562,"freshness":"FRESH","line1":"1 60537U 24149BX  26265.70523160  .00000863  00000+0  80050-4 0  9999","line2":"2 60537  97.6665 338.3186 0003589  77.2132 282.9491 14.96947291114565","mean_motion":14.96947291,"eccentricity":0.0003589,"inclination_deg":97.6665,"raan_deg":338.3186,"arg_perigee_deg":77.2132,"mean_anomaly_deg":282.9491,"bstar":8.005e-5,"rev_number":11456,"period_min":96.195771798888,"perigee_km":573.83913542801,"apogee_km":578.83105549813,"semimajor_km":6954.4720954631,"source":"CELESTRAK","updated_at":"2026-09-23T09:00:20.670183Z"}}